weather.gov     
National Weather Service

Terminal Aerodrome Forecast
NWS Homepage
This page is being discontinued on March 12, 2014.
The same data is available at this site. Please update your bookmarks.
Thank you, and we apologize for the inconvenience.
Please send an email to SR-SRH.Webmaster@noaa.gov with any concerns.


Current Version
Previous Version:    01  02  03  04  05  06  07  08  09  10  11  12  13  14  15  16  17  18  19  20  21  22  23  24  25  26  27  28  29  30  
   31  32  33  34  35  36  37  
[Printable]
487
FTUS43 KDMX 011412 AAA
TAFOTM
TAF AMD
KOTM 011412Z 0114/0212 09010KT 2SM -SN BKN003 OVC006
     FM011700 04016G24KT 2SM -SN BLSN OVC009
     FM012100 36025G35KT 3SM -SN BLSN OVC015
     FM020300 35023G32KT 5SM BLSN OVC015
     FM020600 33016KT P6SM SCT015
     FM021000 32009KT P6SM FEW015=




487
FTUS43 KDMX 011412 AAA
TAFOTM
TAF AMD
KOTM 011412Z 0114/0212 09010KT 2SM -SN BKN003 OVC006
     FM011700 04016G24KT 2SM -SN BLSN OVC009
     FM012100 36025G35KT 3SM -SN BLSN OVC015
     FM020300 35023G32KT 5SM BLSN OVC015
     FM020600 33016KT P6SM SCT015
     FM021000 32009KT P6SM FEW015=


U.S. Dept. of Commerce
NOAA National Weather Service
1325 East West Highway
Silver Spring, MD 20910
E-mail: w-nws.webmaster@noaa.gov
Page last modified: May 16, 2007
NATIONAL WEATHER SERVICE: for Safety, for Work, for Fun - FOR LIFE